Find Starlink 35022

NORAD ID: 65409 Int'l Des: 2025-192 Owner: SPXS Country: US Constellation: starlink operational
LEOCIRCULAR

現在のビュー

3D地球を読み込み中...

Starlink 35022について

説明を読み込み中...

次回通過

Passes for default location (London). Set your location on the main map for personalized predictions.

高度履歴

Loading altitude history...

軌道要素

1 65409U 25192F 26149.50305008 .00020854 00000-0 68154-3 0 9992
2 65409 53.1589 216.5205 0001017 91.0513 269.0605 15.31715783 41763
Epoch: May 29, 2026 • Age: 20 hours

現在のステータス

高度 478.4 km
速度 7.63 km/s
衛星直下点 -25.30°S, 179.74°E
打ち上げ日 Aug 31, 2025
運用期間 0.7 years
タイプ internet

技術仕様

分類 Payload
質量 575.00 kg
乾燥質量 530.00 kg
総質量 575.00 kg
長さ 0.30 m
直径 4.10 m
スパン 29.00 m
形状 Box + pan
製造者 SPXS
バスタイプ Starlink V2MO
フェーズステータス In Orbit
所有者/国 SPXS/US

Most Searched